Terminal Aerodrome Forecast
Issued by NWS

Home | Current Version | Previous Version | Text Only | Print | Product List | Glossary On
Versions: 1 2 3 4 5 6 7 8 9 10 11 12 13 14 15 16 17 18 19 20 21 22 23 24 25 26 27 28 29 30 31 32 33 34 35
000
FTUS43 KDLH 161400 AAA
TAFHYR
TAF AMD
KHYR 161441Z 1615/1712 36010G17KT 5SM -SN OVC014
      TEMPO 1616/1617 2SM -SN BKN008 OVC014
     FM161700 35011G18KT P6SM VCSH OVC012
     FM162000 34010KT P6SM VCSH OVC015
     FM170000 33007KT P6SM BKN018=

USA.gov is the U.S. government's official web portal to all federal, state and local government web resources and services.